UAL142 KJFK-LOWW

Flight info

Callsign UAL142
Flight time N/A
Altitude 33000
Route DIXIE Y481 POPPN LACKS JOBOC 4160N 4250N 4340N 4330N 4320N MUDOS ROXER NOLSA MARIO SINDO PIVUS DIBER NETUP STP RAPED PIGOS EKSID NOSTA LUKIM MALUG ARALD ABTAN
Aircraft B742/H-SDFHIRWXY/L

Departure

Time N/A
Airport John F. Kennedy International Airport (KJFK)

Arrival

Time 2026-04-25 23:16
Airport Vienna International Airport (LOWW)
Time Latitude Longitude Altitude Speed Heading
2026-04-25 17:16 42.33816 -47.47850 32538 ft 565 kts 84°
2026-04-25 17:16 42.34466 -47.42572 32544 ft 565 kts 83°
2026-04-25 17:16 42.35738 -47.32142 32534 ft 564 kts 85°
2026-04-25 17:17 42.36945 -47.21713 32541 ft 565 kts 85°
2026-04-25 17:17 42.38175 -47.11224 32540 ft 566 kts 85°
2026-04-25 17:18 42.39417 -47.00794 32543 ft 566 kts 85°
2026-04-25 17:18 42.40659 -46.90331 32532 ft 564 kts 85°
2026-04-25 17:19 42.41890 -46.79865 32541 ft 566 kts 85°
2026-04-25 17:19 42.43115 -46.69353 32544 ft 567 kts 85°
2026-04-25 17:20 42.44331 -46.58831 32544 ft 568 kts 85°
2026-04-25 17:20 42.45534 -46.48351 32547 ft 565 kts 85°
2026-04-25 17:21 42.46724 -46.37869 32550 ft 568 kts 85°
2026-04-25 17:21 42.47887 -46.27304 32550 ft 566 kts 87°
2026-04-25 17:22 42.48630 -46.20318 32552 ft 565 kts 86°
2026-04-25 17:22 42.50161 -46.06235 32562 ft 570 kts 86°
2026-04-25 17:23 42.51321 -45.95696 32558 ft 567 kts 86°
2026-04-25 17:23 42.52472 -45.85152 32556 ft 567 kts 86°
2026-04-25 17:24 42.53613 -45.74577 32556 ft 569 kts 87°
2026-04-25 17:24 42.54745 -45.63992 32561 ft 568 kts 86°
2026-04-25 17:25 42.55862 -45.53462 32569 ft 568 kts 86°
2026-04-25 17:25 42.56974 -45.42867 32571 ft 570 kts 87°
2026-04-25 17:26 42.58078 -45.32239 32560 ft 568 kts 88°
2026-04-25 17:26 42.59106 -45.21734 32573 ft 566 kts 88°
2026-04-25 17:27 42.60155 -45.11136 32564 ft 568 kts 88°
2026-04-25 17:27 42.60869 -45.04047 32557 ft 568 kts 88°
2026-04-25 17:28 42.62288 -44.89938 32565 ft 569 kts 88°
2026-04-25 17:28 42.63347 -44.79299 32559 ft 569 kts 88°
2026-04-25 17:29 42.64388 -44.68734 32569 ft 567 kts 88°
2026-04-25 17:29 42.65421 -44.58114 32567 ft 568 kts 88°
2026-04-25 17:30 42.66448 -44.47462 32576 ft 568 kts 88°
2026-04-25 17:30 42.67458 -44.36894 32591 ft 569 kts 88°
2026-04-25 17:31 42.68426 -44.26296 32581 ft 566 kts 89°
2026-04-25 17:31 42.69367 -44.15713 32578 ft 567 kts 89°
2026-04-25 17:32 42.70342 -44.05020 32601 ft 571 kts 89°
2026-04-25 17:32 42.71318 -43.94413 32592 ft 568 kts 89°
2026-04-25 17:33 42.72287 -43.83761 32591 ft 568 kts 89°
2026-04-25 17:33 42.73245 -43.73104 32608 ft 565 kts 89°
2026-04-25 17:34 42.74184 -43.62529 32598 ft 565 kts 89°
2026-04-25 17:34 42.75112 -43.51969 32599 ft 564 kts 89°
2026-04-25 17:35 42.76031 -43.41391 32593 ft 565 kts 89°
2026-04-25 17:35 42.76937 -43.30738 32587 ft 565 kts 90°
2026-04-25 17:36 42.77775 -43.20231 32594 ft 562 kts 90°
2026-04-25 17:36 42.78640 -43.09597 32593 ft 564 kts 89°
2026-04-25 17:37 42.79513 -42.99072 32590 ft 564 kts 89°
2026-04-25 17:37 42.80385 -42.88517 32607 ft 562 kts 89°
2026-04-25 17:38 42.80960 -42.81462 32601 ft 563 kts 90°
2026-04-25 17:38 42.82096 -42.67347 32615 ft 562 kts 89°
2026-04-25 17:39 42.82931 -42.56829 32628 ft 562 kts 89°
2026-04-25 17:39 42.83763 -42.46245 32634 ft 559 kts 89°
2026-04-25 17:40 42.84575 -42.35765 32627 ft 560 kts 89°
2026-04-25 17:40 42.85341 -42.25227 32630 ft 557 kts 91°
2026-04-25 17:41 42.86083 -42.14814 32638 ft 559 kts 90°
2026-04-25 17:41 42.86859 -42.04272 32637 ft 557 kts 90°
2026-04-25 17:42 42.87633 -41.93832 32627 ft 555 kts 90°
2026-04-25 17:42 42.88394 -41.83382 32641 ft 557 kts 90°
2026-04-25 17:43 42.89148 -41.72903 32623 ft 559 kts 90°
2026-04-25 17:43 42.89896 -41.62389 32637 ft 558 kts 90°
2026-04-25 17:44 42.90635 -41.51863 32625 ft 558 kts 90°
2026-04-25 17:44 42.91359 -41.41377 32650 ft 558 kts 90°
2026-04-25 17:45 42.91835 -41.34405 32638 ft 559 kts 91°
2026-04-25 17:45 42.92713 -41.20406 32647 ft 558 kts 91°
2026-04-25 17:46 42.93383 -41.09897 32653 ft 559 kts 91°
2026-04-25 17:46 42.94071 -40.99336 32642 ft 558 kts 91°
2026-04-25 17:47 42.94750 -40.88829 32670 ft 562 kts 91°
2026-04-25 17:47 42.95426 -40.78229 32647 ft 560 kts 91°
2026-04-25 17:48 42.96412 -40.62434 32662 ft 562 kts 91°
2026-04-25 17:49 42.97062 -40.51818 32636 ft 560 kts 91°
2026-04-25 17:49 42.97702 -40.41237 32651 ft 560 kts 91°
2026-04-25 17:50 42.98316 -40.30698 32649 ft 560 kts 93°
2026-04-25 17:50 42.98877 -40.20135 32634 ft 559 kts 92°
2026-04-25 17:51 42.99458 -40.09545 32624 ft 560 kts 92°
2026-04-25 17:51 43.00071 -39.98998 32632 ft 559 kts 91°
2026-04-25 17:52 43.00588 -39.88376 32638 ft 559 kts 94°
2026-04-25 17:52 43.00988 -39.77815 32644 ft 560 kts 93°
2026-04-25 17:53 43.01412 -39.67183 32654 ft 562 kts 93°
2026-04-25 17:53 43.01848 -39.56601 32656 ft 560 kts 93°
2026-04-25 17:54 43.02277 -39.46006 32659 ft 561 kts 93°
2026-04-25 17:54 43.02697 -39.35358 32659 ft 561 kts 93°
2026-04-25 17:55 43.03063 -39.24775 32657 ft 555 kts 94°
2026-04-25 17:55 43.03411 -39.14310 32655 ft 558 kts 94°
2026-04-25 17:56 43.03786 -39.03708 32660 ft 560 kts 94°
2026-04-25 17:56 43.04166 -38.93130 32659 ft 558 kts 93°
2026-04-25 17:57 43.04536 -38.82539 32648 ft 558 kts 93°
2026-04-25 17:57 43.04895 -38.71964 32658 ft 557 kts 93°
2026-04-25 17:58 43.05239 -38.61450 32662 ft 558 kts 93°
2026-04-25 17:58 43.05576 -38.50893 32676 ft 555 kts 93°
2026-04-25 17:59 43.05902 -38.40396 32683 ft 556 kts 92°
2026-04-25 17:59 43.06206 -38.29861 32687 ft 557 kts 94°
2026-04-25 18:00 43.06415 -38.21102 32693 ft 554 kts 93°
2026-04-25 18:00 43.06732 -38.08797 32707 ft 554 kts 93°
2026-04-25 18:01 43.07017 -37.98330 32726 ft 554 kts 92°
2026-04-25 18:01 43.07297 -37.87810 32734 ft 554 kts 92°
2026-04-25 18:02 43.07565 -37.77341 32737 ft 555 kts 92°
2026-04-25 18:02 43.07825 -37.66838 32741 ft 555 kts 92°
2026-04-25 18:03 43.08075 -37.56314 32743 ft 553 kts 92°
2026-04-25 18:03 43.08313 -37.45867 32749 ft 553 kts 92°
2026-04-25 18:04 43.08541 -37.35404 32766 ft 553 kts 92°
2026-04-25 18:04 43.08720 -37.24898 32766 ft 551 kts 94°
2026-04-25 18:05 43.08886 -37.14463 32773 ft 552 kts 92°
2026-04-25 18:05 43.09075 -37.04005 32785 ft 552 kts 93°
2026-04-25 18:06 43.09267 -36.93625 32786 ft 549 kts 93°
2026-04-25 18:06 43.09448 -36.83187 32793 ft 550 kts 92°
2026-04-25 18:07 43.09619 -36.72769 32797 ft 550 kts 92°
2026-04-25 18:07 43.09782 -36.62369 32804 ft 549 kts 92°
2026-04-25 18:08 43.09934 -36.51940 32813 ft 549 kts 92°
2026-04-25 18:08 43.10077 -36.41560 32818 ft 547 kts 92°
2026-04-25 18:09 43.10199 -36.31206 32820 ft 547 kts 93°
2026-04-25 18:09 43.10263 -36.20792 32830 ft 545 kts 93°
2026-04-25 18:10 43.10317 -36.13970 32832 ft 545 kts 93°
2026-04-25 18:10 43.10448 -36.00192 32841 ft 544 kts 92°
2026-04-25 18:11 43.10546 -35.89897 32856 ft 543 kts 92°
2026-04-25 18:11 43.10634 -35.79539 32864 ft 543 kts 92°
2026-04-25 18:12 43.10709 -35.69242 32869 ft 543 kts 92°
2026-04-25 18:12 43.10777 -35.58925 32871 ft 543 kts 92°
2026-04-25 18:13 43.10834 -35.48621 32879 ft 542 kts 92°
2026-04-25 18:13 43.10884 -35.38375 32885 ft 543 kts 92°
2026-04-25 18:14 43.10885 -35.23006 32891 ft 539 kts 93°
2026-04-25 18:14 43.10875 -35.12738 32893 ft 539 kts 92°
2026-04-25 18:15 43.10883 -35.02541 32899 ft 540 kts 92°
2026-04-25 18:15 43.10892 -34.92291 32911 ft 539 kts 92°
2026-04-25 18:16 43.10892 -34.82082 32916 ft 539 kts 92°
2026-04-25 18:17 43.10871 -34.66812 32926 ft 538 kts 92°
2026-04-25 18:17 43.10847 -34.56575 32928 ft 540 kts 92°
2026-04-25 18:18 43.10815 -34.46363 32929 ft 537 kts 92°
2026-04-25 18:18 43.10772 -34.36137 32937 ft 538 kts 92°
2026-04-25 18:19 43.10683 -34.26016 32932 ft 537 kts 94°
2026-04-25 18:19 43.10575 -34.15797 32939 ft 538 kts 93°
2026-04-25 18:20 43.10493 -34.05631 32941 ft 538 kts 92°
2026-04-25 18:20 43.10415 -33.95452 32949 ft 536 kts 92°
2026-04-25 18:21 43.10329 -33.85289 32950 ft 536 kts 92°
2026-04-25 18:21 43.10233 -33.75111 32959 ft 538 kts 92°
2026-04-25 18:22 43.10127 -33.64901 32960 ft 536 kts 92°
2026-04-25 18:22 43.10014 -33.54780 32963 ft 536 kts 92°
2026-04-25 18:23 43.09889 -33.44597 32974 ft 536 kts 92°
2026-04-25 18:23 43.09758 -33.34477 32975 ft 535 kts 93°
2026-04-25 18:24 43.09568 -33.24329 32976 ft 534 kts 94°
2026-04-25 18:24 43.09378 -33.14206 32985 ft 534 kts 93°
2026-04-25 18:25 43.09211 -33.04136 32995 ft 533 kts 92°
2026-04-25 18:25 43.09044 -32.93997 32998 ft 534 kts 93°
2026-04-25 18:26 43.08868 -32.83876 33007 ft 532 kts 92°
2026-04-25 18:26 43.08685 -32.73809 33011 ft 532 kts 92°
2026-04-25 18:27 43.08491 -32.63700 33009 ft 533 kts 92°
2026-04-25 18:27 43.08289 -32.53635 33010 ft 531 kts 92°
2026-04-25 18:28 43.08078 -32.43559 33023 ft 531 kts 92°
2026-04-25 18:28 43.07857 -32.33479 33026 ft 530 kts 93°
2026-04-25 18:29 43.07437 -32.18478 33033 ft 530 kts 93°
2026-04-25 18:30 43.06925 -31.98390 33038 ft 529 kts 93°
2026-04-25 18:30 43.06669 -31.88407 33041 ft 527 kts 93°
2026-04-25 18:31 43.06405 -31.78464 33042 ft 527 kts 92°
2026-04-25 18:31 43.06129 -31.68453 33044 ft 528 kts 92°
2026-04-25 18:32 43.05846 -31.58454 33047 ft 526 kts 92°
2026-04-25 18:32 43.05556 -31.48547 33045 ft 527 kts 92°
2026-04-25 18:33 43.05254 -31.38544 33050 ft 526 kts 92°
2026-04-25 18:33 43.04921 -31.28554 33052 ft 526 kts 94°
2026-04-25 18:34 43.04551 -31.18600 33055 ft 526 kts 93°
2026-04-25 18:34 43.04207 -31.08668 33059 ft 526 kts 93°
2026-04-25 18:35 43.03870 -30.98710 33055 ft 527 kts 93°
2026-04-25 18:35 43.03528 -30.88765 33061 ft 526 kts 93°
2026-04-25 18:36 43.03177 -30.78797 33063 ft 524 kts 93°
2026-04-25 18:36 43.02818 -30.68905 33065 ft 523 kts 93°
2026-04-25 18:37 43.02452 -30.59042 33067 ft 523 kts 93°
2026-04-25 18:37 43.02075 -30.49099 33068 ft 524 kts 92°
2026-04-25 18:38 43.01692 -30.39220 33068 ft 522 kts 92°
2026-04-25 18:38 43.01282 -30.29358 33072 ft 522 kts 94°
2026-04-25 18:39 43.00826 -30.19468 33082 ft 521 kts 94°
2026-04-25 18:39 43.00397 -30.09636 33089 ft 523 kts 93°
2026-04-25 18:40 42.99980 -29.99729 33086 ft 521 kts 92°
2026-04-25 18:40 43.00225 -29.89910 33093 ft 519 kts 85°
2026-04-25 18:41 43.00784 -29.80163 33090 ft 519 kts 85°
2026-04-25 18:41 43.01270 -29.70313 33105 ft 519 kts 85°
2026-04-25 18:42 43.01554 -29.63777 33108 ft 519 kts 85°
2026-04-25 18:42 43.02086 -29.50733 33107 ft 519 kts 86°
2026-04-25 18:43 43.02475 -29.40925 33112 ft 518 kts 85°
2026-04-25 18:43 43.02846 -29.31141 33113 ft 517 kts 87°
2026-04-25 18:44 43.03165 -29.21304 33115 ft 518 kts 86°
2026-04-25 18:44 43.03504 -29.11509 33119 ft 517 kts 86°
2026-04-25 18:45 43.03853 -29.01785 33123 ft 517 kts 86°
2026-04-25 18:45 43.04202 -28.91988 33122 ft 518 kts 86°
2026-04-25 18:46 43.04543 -28.82190 33121 ft 517 kts 86°
2026-04-25 18:46 43.04874 -28.72407 33122 ft 517 kts 86°
2026-04-25 18:47 43.05197 -28.62633 33120 ft 516 kts 86°
2026-04-25 18:47 43.05512 -28.52807 33119 ft 517 kts 86°
2026-04-25 18:48 43.05816 -28.43090 33121 ft 516 kts 86°
2026-04-25 18:48 43.06113 -28.33281 33119 ft 516 kts 87°
2026-04-25 18:49 43.06348 -28.23568 33121 ft 516 kts 87°
2026-04-25 18:49 43.06594 -28.13786 33121 ft 515 kts 87°
2026-04-25 18:50 43.06858 -28.04064 33122 ft 515 kts 86°
2026-04-25 18:50 43.07121 -27.94311 33122 ft 515 kts 86°
2026-04-25 18:51 43.07294 -27.87765 33124 ft 516 kts 86°
2026-04-25 18:51 43.07627 -27.74721 33123 ft 516 kts 86°
2026-04-25 18:52 43.07865 -27.64959 33122 ft 515 kts 86°
2026-04-25 18:52 43.08095 -27.55237 33122 ft 514 kts 86°
2026-04-25 18:53 43.08315 -27.45555 33120 ft 502 kts 86°
2026-04-25 18:53 43.08523 -27.36056 33120 ft 498 kts 86°
2026-04-25 18:54 43.08757 -27.21857 33125 ft 507 kts 87°
2026-04-25 18:55 43.08921 -27.12231 33117 ft 502 kts 87°
2026-04-25 18:55 43.09095 -27.02774 33122 ft 504 kts 87°
2026-04-25 18:56 43.09273 -26.93081 33120 ft 511 kts 86°
2026-04-25 18:56 43.09356 -26.88300 33119 ft 500 kts 86°
2026-04-25 18:56 43.09436 -26.83576 33121 ft 500 kts 86°
2026-04-25 18:57 43.09592 -26.74176 33121 ft 498 kts 86°
2026-04-25 18:57 43.09742 -26.64673 33119 ft 495 kts 86°
2026-04-25 18:58 43.09883 -26.55278 33123 ft 503 kts 86°
2026-04-25 18:58 43.10085 -26.40780 33121 ft 515 kts 86°
2026-04-25 18:59 43.10257 -26.21329 33121 ft 511 kts 88°
2026-04-25 19:00 43.10336 -26.11779 33122 ft 499 kts 87°
2026-04-25 19:00 43.10383 -26.07033 33122 ft 504 kts 87°
2026-04-25 19:01 43.10525 -25.92463 33123 ft 515 kts 87°
2026-04-25 19:01 43.10608 -25.82727 33120 ft 511 kts 87°
2026-04-25 19:02 43.10716 -25.68267 33115 ft 510 kts 87°
2026-04-25 19:03 43.10789 -25.56938 33114 ft 510 kts 87°
2026-04-25 19:03 43.10857 -25.44107 33111 ft 509 kts 87°
2026-04-25 19:04 43.10900 -25.29566 33107 ft 510 kts 88°
2026-04-25 19:05 43.10876 -25.10265 33101 ft 508 kts 88°
2026-04-25 19:06 43.10886 -25.00640 33104 ft 509 kts 88°
2026-04-25 19:06 43.10893 -24.86180 33096 ft 501 kts 88°
2026-04-25 19:07 43.10881 -24.71979 33099 ft 505 kts 88°
2026-04-25 19:08 43.10852 -24.57497 33097 ft 510 kts 88°
2026-04-25 19:09 43.10795 -24.41419 33101 ft 507 kts 88°
2026-04-25 19:10 43.10655 -24.23789 33100 ft 508 kts 89°
2026-04-25 19:10 43.10561 -24.14130 33095 ft 508 kts 88°
2026-04-25 19:11 43.10486 -24.04550 33096 ft 507 kts 88°
2026-04-25 19:11 43.10412 -23.94903 33099 ft 507 kts 88°
2026-04-25 19:12 43.10329 -23.85348 33096 ft 506 kts 88°
2026-04-25 19:12 43.10239 -23.75762 33095 ft 506 kts 88°
2026-04-25 19:13 43.10141 -23.66145 33097 ft 507 kts 88°
2026-04-25 19:13 43.10034 -23.56556 33091 ft 506 kts 88°
2026-04-25 19:14 43.09919 -23.46945 33093 ft 506 kts 88°
2026-04-25 19:14 43.09796 -23.37343 33094 ft 506 kts 88°
2026-04-25 19:15 43.09636 -23.27780 33086 ft 505 kts 90°
2026-04-25 19:15 43.09449 -23.18198 33083 ft 503 kts 89°
2026-04-25 19:16 43.09287 -23.08704 33082 ft 503 kts 89°
2026-04-25 19:16 43.09131 -22.99168 33083 ft 503 kts 89°
2026-04-25 19:17 43.08969 -22.89585 33076 ft 503 kts 89°
2026-04-25 19:17 43.08801 -22.80085 33079 ft 503 kts 89°
2026-04-25 19:18 43.08622 -22.70489 33080 ft 506 kts 89°
2026-04-25 19:18 43.08436 -22.60920 33084 ft 504 kts 89°
2026-04-25 19:19 43.08242 -22.51389 33081 ft 504 kts 89°
2026-04-25 19:19 43.08041 -22.41849 33081 ft 505 kts 89°
2026-04-25 19:20 43.07826 -22.32274 33081 ft 503 kts 90°
2026-04-25 19:20 43.07553 -22.22697 33081 ft 506 kts 90°
2026-04-25 19:21 43.07298 -22.13193 33080 ft 504 kts 90°
2026-04-25 19:21 43.06937 -21.98824 33078 ft 505 kts 90°
2026-04-25 19:22 43.06692 -21.89294 33076 ft 506 kts 90°
2026-04-25 19:23 43.06308 -21.74894 33078 ft 507 kts 90°
2026-04-25 19:23 43.05903 -21.60437 33075 ft 509 kts 91°
2026-04-25 19:24 43.05624 -21.50841 33080 ft 510 kts 91°
2026-04-25 19:25 43.05030 -21.31494 33073 ft 512 kts 92°
2026-04-25 19:25 43.04666 -21.21759 33079 ft 512 kts 93°
2026-04-25 19:26 43.04324 -21.12099 33075 ft 512 kts 92°
2026-04-25 19:26 43.03996 -21.02394 33085 ft 514 kts 93°
2026-04-25 19:27 43.03775 -20.95893 33084 ft 515 kts 93°
2026-04-25 19:27 43.03323 -20.82889 33083 ft 516 kts 93°
2026-04-25 19:28 43.02972 -20.73130 33080 ft 517 kts 93°
2026-04-25 19:28 43.02613 -20.63345 33083 ft 517 kts 93°
2026-04-25 19:29 43.02244 -20.53516 33083 ft 521 kts 94°
2026-04-25 19:29 43.01866 -20.43671 33090 ft 521 kts 94°
2026-04-25 19:30 43.01478 -20.33798 33082 ft 521 kts 95°
2026-04-25 19:30 43.01031 -20.23969 33092 ft 522 kts 95°
2026-04-25 19:31 43.00590 -20.14124 33087 ft 523 kts 95°
2026-04-25 19:31 43.00166 -20.04193 33089 ft 524 kts 96°
2026-04-25 19:32 43.00159 -19.94224 33104 ft 529 kts 84°
2026-04-25 19:32 43.00917 -19.87656 33099 ft 530 kts 81°
2026-04-25 19:33 43.02562 -19.74466 33102 ft 530 kts 82°
2026-04-25 19:33 43.03621 -19.64533 33100 ft 530 kts 83°
2026-04-25 19:34 43.04620 -19.54552 33100 ft 531 kts 83°
2026-04-25 19:34 43.05599 -19.44622 33100 ft 533 kts 83°
2026-04-25 19:35 43.06584 -19.34570 33100 ft 533 kts 84°
2026-04-25 19:35 43.07507 -19.24588 33099 ft 533 kts 84°
2026-04-25 19:36 43.08436 -19.14530 33099 ft 534 kts 84°
2026-04-25 19:36 43.09385 -19.04489 33101 ft 536 kts 84°
2026-04-25 19:37 43.10343 -18.94385 33098 ft 536 kts 84°
2026-04-25 19:37 43.11283 -18.84364 33102 ft 534 kts 84°
2026-04-25 19:38 43.12218 -18.74287 33111 ft 534 kts 84°
2026-04-25 19:38 43.13143 -18.64217 33121 ft 534 kts 84°
2026-04-25 19:39 43.14057 -18.54163 33121 ft 533 kts 84°
2026-04-25 19:39 43.14958 -18.44163 33127 ft 533 kts 84°
2026-04-25 19:40 43.15855 -18.34107 33128 ft 533 kts 85°
2026-04-25 19:40 43.16695 -18.24023 33129 ft 532 kts 85°
2026-04-25 19:41 43.17532 -18.13991 33132 ft 534 kts 85°
2026-04-25 19:41 43.18108 -18.07262 33132 ft 533 kts 85°
2026-04-25 19:42 43.19259 -17.93837 33139 ft 533 kts 85°
2026-04-25 19:42 43.20106 -17.83833 33140 ft 532 kts 85°
2026-04-25 19:43 43.20950 -17.73772 33140 ft 531 kts 85°
2026-04-25 19:43 43.21776 -17.63802 33142 ft 531 kts 85°
2026-04-25 19:44 43.22597 -17.53781 33144 ft 531 kts 85°
2026-04-25 19:44 43.23416 -17.43685 33144 ft 532 kts 86°
2026-04-25 19:45 43.24218 -17.33691 33147 ft 530 kts 87°
2026-04-25 19:45 43.24955 -17.23733 33149 ft 528 kts 87°
2026-04-25 19:46 43.25702 -17.13724 33152 ft 530 kts 87°
2026-04-25 19:46 43.26469 -17.03725 33155 ft 529 kts 86°
2026-04-25 19:47 43.27239 -16.93692 33156 ft 528 kts 86°
2026-04-25 19:47 43.27995 -16.83733 33156 ft 529 kts 86°
2026-04-25 19:48 43.28745 -16.73711 33157 ft 529 kts 87°
2026-04-25 19:48 43.29482 -16.63751 33159 ft 527 kts 86°
2026-04-25 19:49 43.29970 -16.57092 33161 ft 525 kts 86°
2026-04-25 19:49 43.30927 -16.43849 33161 ft 527 kts 86°
2026-04-25 19:50 43.31973 -16.28851 33160 ft 524 kts 88°
2026-04-25 19:51 43.32611 -16.18966 33161 ft 524 kts 88°
2026-04-25 19:51 43.33275 -16.09056 33161 ft 523 kts 88°
2026-04-25 19:52 43.33947 -15.99176 33163 ft 522 kts 87°
2026-04-25 19:52 43.34618 -15.89220 33163 ft 523 kts 87°
2026-04-25 19:53 43.35280 -15.79278 33169 ft 522 kts 87°
2026-04-25 19:53 43.35928 -15.69398 33175 ft 522 kts 87°
2026-04-25 19:54 43.36567 -15.59524 33176 ft 522 kts 87°
2026-04-25 19:54 43.37202 -15.49590 33178 ft 521 kts 87°
2026-04-25 19:55 43.37822 -15.39733 33183 ft 521 kts 87°
2026-04-25 19:55 43.38423 -15.29790 33191 ft 520 kts 88°
2026-04-25 19:56 43.38972 -15.19926 33189 ft 519 kts 88°
2026-04-25 19:56 43.39542 -15.10106 33193 ft 520 kts 88°
2026-04-25 19:57 43.40128 -15.00203 33194 ft 519 kts 88°
2026-04-25 19:57 43.40706 -14.90348 33198 ft 517 kts 87°
2026-04-25 19:58 43.41275 -14.80505 33197 ft 518 kts 87°
2026-04-25 19:58 43.41835 -14.70653 33195 ft 519 kts 87°
2026-04-25 19:59 43.42386 -14.60841 33190 ft 518 kts 87°
2026-04-25 19:59 43.42931 -14.50952 33193 ft 518 kts 87°
2026-04-25 20:00 43.43462 -14.41157 33194 ft 517 kts 87°
2026-04-25 20:00 43.43981 -14.31284 33196 ft 517 kts 88°
2026-04-25 20:01 43.44673 -14.16638 33201 ft 515 kts 88°
2026-04-25 20:01 43.45163 -14.06817 33200 ft 516 kts 88°
2026-04-25 20:02 43.45657 -13.96996 33203 ft 516 kts 88°
2026-04-25 20:02 43.46144 -13.87159 33200 ft 516 kts 88°
2026-04-25 20:03 43.46623 -13.77352 33199 ft 514 kts 88°
2026-04-25 20:03 43.47091 -13.67550 33199 ft 515 kts 88°
2026-04-25 20:04 43.47549 -13.57785 33187 ft 514 kts 87°
2026-04-25 20:04 43.47997 -13.48073 33184 ft 511 kts 87°
2026-04-25 20:05 43.48439 -13.38310 33183 ft 512 kts 87°
2026-04-25 20:05 43.48847 -13.28555 33183 ft 512 kts 89°
2026-04-25 20:06 43.49220 -13.18803 33183 ft 512 kts 88°
2026-04-25 20:06 43.49616 -13.09072 33182 ft 511 kts 88°
2026-04-25 20:07 43.49965 -12.99294 33182 ft 510 kts 90°
2026-04-25 20:07 43.49817 -12.89647 33185 ft 508 kts 94°
2026-04-25 20:08 43.49505 -12.79960 33185 ft 508 kts 94°
2026-04-25 20:08 43.49211 -12.70278 33187 ft 507 kts 93°
2026-04-25 20:09 43.48932 -12.60599 33190 ft 507 kts 93°
2026-04-25 20:09 43.48652 -12.50928 33192 ft 506 kts 93°
2026-04-25 20:10 43.48366 -12.41321 33192 ft 506 kts 93°
2026-04-25 20:10 43.48063 -12.31681 33193 ft 506 kts 94°
2026-04-25 20:11 43.47703 -12.22017 33194 ft 506 kts 94°
2026-04-25 20:11 43.47362 -12.12402 33193 ft 505 kts 94°
2026-04-25 20:12 43.47036 -12.02750 33193 ft 505 kts 94°
2026-04-25 20:12 43.46818 -11.96331 33192 ft 504 kts 94°
2026-04-25 20:13 43.46377 -11.83611 33189 ft 503 kts 94°
2026-04-25 20:13 43.46034 -11.74007 33187 ft 502 kts 94°
2026-04-25 20:14 43.45684 -11.64429 33188 ft 503 kts 94°
2026-04-25 20:14 43.45325 -11.54857 33189 ft 503 kts 94°
2026-04-25 20:15 43.44957 -11.45235 33187 ft 502 kts 94°
2026-04-25 20:15 43.44583 -11.35662 33187 ft 503 kts 94°
2026-04-25 20:16 43.44160 -11.26075 33185 ft 501 kts 95°
2026-04-25 20:16 43.43731 -11.16601 33185 ft 501 kts 95°
2026-04-25 20:17 43.43320 -11.07052 33185 ft 500 kts 95°
2026-04-25 20:17 43.42915 -10.97534 33183 ft 501 kts 95°
2026-04-25 20:18 43.42503 -10.88013 33183 ft 500 kts 95°
2026-04-25 20:18 43.42084 -10.78492 33182 ft 501 kts 95°
2026-04-25 20:19 43.41655 -10.68949 33179 ft 501 kts 95°
2026-04-25 20:19 43.41217 -10.59400 33181 ft 501 kts 95°
2026-04-25 20:20 43.40774 -10.49900 33175 ft 500 kts 95°
2026-04-25 20:20 43.40320 -10.40342 33173 ft 501 kts 95°
2026-04-25 20:21 43.39852 -10.30876 33168 ft 500 kts 96°
2026-04-25 20:21 43.39328 -10.21345 33165 ft 500 kts 96°
2026-04-25 20:22 43.38994 -10.15035 33164 ft 500 kts 96°
2026-04-25 20:22 43.38340 -10.02347 33154 ft 501 kts 95°
2026-04-25 20:23 43.37849 -9.92850 33155 ft 501 kts 95°
2026-04-25 20:23 43.37351 -9.83335 33153 ft 501 kts 95°
2026-04-25 20:24 43.36844 -9.73839 33151 ft 501 kts 95°
2026-04-25 20:24 43.36329 -9.64329 33152 ft 499 kts 95°
2026-04-25 20:25 43.35808 -9.54858 33153 ft 500 kts 95°
2026-04-25 20:25 43.35280 -9.45392 33150 ft 499 kts 95°
2026-04-25 20:26 43.34741 -9.35901 33144 ft 500 kts 95°
2026-04-25 20:26 43.34159 -9.26439 33145 ft 498 kts 96°
2026-04-25 20:27 43.33564 -9.16988 33148 ft 499 kts 96°
2026-04-25 20:27 43.32991 -9.07549 33144 ft 499 kts 95°
2026-04-25 20:28 43.32422 -8.98085 33142 ft 498 kts 95°
2026-04-25 20:28 43.31850 -8.88675 33147 ft 497 kts 95°
2026-04-25 20:29 43.31267 -8.79208 33145 ft 499 kts 95°
2026-04-25 20:29 43.30672 -8.69699 33143 ft 498 kts 95°
2026-04-25 20:30 43.30075 -8.60266 33145 ft 497 kts 95°
2026-04-25 20:30 43.29469 -8.50840 33144 ft 498 kts 95°
2026-04-25 20:31 43.28857 -8.41424 33144 ft 498 kts 95°
2026-04-25 20:31 43.28233 -8.32039 33143 ft 497 kts 96°
2026-04-25 20:32 43.27548 -8.22590 33146 ft 497 kts 96°
2026-04-25 20:32 43.26882 -8.13162 33146 ft 498 kts 95°
2026-04-25 20:33 43.26233 -8.03764 33144 ft 496 kts 95°
2026-04-25 20:33 43.25800 -7.97505 33145 ft 496 kts 95°
2026-04-25 20:34 43.24927 -7.85008 33147 ft 495 kts 95°
2026-04-25 20:34 43.24266 -7.75673 33146 ft 495 kts 95°
2026-04-25 20:35 43.23596 -7.66319 33148 ft 494 kts 95°
2026-04-25 20:35 43.22919 -7.56989 33146 ft 494 kts 95°
2026-04-25 20:36 43.22235 -7.47664 33152 ft 494 kts 95°
2026-04-25 20:36 43.21542 -7.38322 33152 ft 491 kts 94°
2026-04-25 20:37 43.20611 -7.29063 33158 ft 490 kts 99°
2026-04-25 20:37 43.19430 -7.19866 33162 ft 492 kts 99°
2026-04-25 20:38 43.18287 -7.10724 33159 ft 490 kts 98°
2026-04-25 20:38 43.17161 -7.01480 33160 ft 491 kts 98°
2026-04-25 20:39 43.16053 -6.92354 33153 ft 489 kts 98°
2026-04-25 20:39 43.15306 -6.86235 33164 ft 488 kts 98°
2026-04-25 20:40 43.13807 -6.74030 33182 ft 489 kts 98°
2026-04-25 20:40 43.12677 -6.64905 33190 ft 489 kts 98°
2026-04-25 20:41 43.11532 -6.55720 33191 ft 489 kts 98°
2026-04-25 20:41 43.10384 -6.46578 33194 ft 489 kts 97°
2026-04-25 20:42 43.09234 -6.37482 33207 ft 489 kts 98°
2026-04-25 20:42 43.08038 -6.28310 33214 ft 490 kts 99°
2026-04-25 20:43 43.06822 -6.19196 33215 ft 489 kts 98°
2026-04-25 20:43 43.05626 -6.10060 33212 ft 488 kts 98°
2026-04-25 20:44 43.04443 -6.00964 33207 ft 489 kts 98°
2026-04-25 20:44 43.03254 -5.91863 33213 ft 489 kts 98°
2026-04-25 20:45 43.02054 -5.82732 33222 ft 488 kts 98°
2026-04-25 20:45 43.00849 -5.73620 33230 ft 489 kts 98°
2026-04-25 20:46 42.99633 -5.64492 33239 ft 488 kts 98°
2026-04-25 20:46 42.98412 -5.55383 33246 ft 488 kts 98°
2026-04-25 20:47 42.97188 -5.46300 33242 ft 487 kts 98°
2026-04-25 20:47 42.95958 -5.37242 33235 ft 486 kts 98°
2026-04-25 20:48 42.95338 -5.32727 33583 ft 481 kts 99°
2026-04-25 20:48 42.94707 -5.28306 33985 ft 479 kts 99°
2026-04-25 20:48 42.94065 -5.23838 34181 ft 481 kts 99°
2026-04-25 20:48 42.93430 -5.19356 34212 ft 485 kts 99°
2026-04-25 20:49 42.92157 -5.10253 34222 ft 496 kts 99°
2026-04-25 20:49 42.90869 -5.01010 34226 ft 501 kts 99°
2026-04-25 20:50 42.89567 -4.91714 34223 ft 498 kts 99°
2026-04-25 20:50 42.88267 -4.82465 34232 ft 498 kts 99°
2026-04-25 20:51 42.86953 -4.73178 34239 ft 502 kts 99°
2026-04-25 20:51 42.85630 -4.63896 34235 ft 503 kts 99°
2026-04-25 20:52 42.84512 -4.56095 34232 ft 503 kts 100°
2026-04-25 20:52 42.82947 -4.45247 34224 ft 502 kts 100°
2026-04-25 20:53 42.81598 -4.35957 34219 ft 504 kts 100°
2026-04-25 20:53 42.80188 -4.26569 34211 ft 505 kts 102°
2026-04-25 20:54 42.78779 -4.17281 34206 ft 504 kts 101°
2026-04-25 20:54 42.77388 -4.07962 34207 ft 505 kts 102°
2026-04-25 20:55 42.76003 -3.98652 34210 ft 503 kts 102°
2026-04-25 20:55 42.74606 -3.89306 34205 ft 504 kts 102°
2026-04-25 20:56 42.73201 -3.79973 34208 ft 506 kts 102°
2026-04-25 20:56 42.71795 -3.70674 34205 ft 507 kts 102°
2026-04-25 20:57 42.70363 -3.61270 34208 ft 508 kts 102°
2026-04-25 20:57 42.68924 -3.51871 34210 ft 510 kts 102°
2026-04-25 20:58 42.67482 -3.42504 34207 ft 510 kts 102°
2026-04-25 20:58 42.66024 -3.33096 34205 ft 510 kts 103°
2026-04-25 20:59 42.64498 -3.23654 34212 ft 512 kts 104°
2026-04-25 20:59 42.62991 -3.14251 34210 ft 512 kts 104°
2026-04-25 21:00 42.61993 -3.07955 34205 ft 514 kts 103°
2026-04-25 21:01 42.59253 -2.90668 34198 ft 512 kts 104°
2026-04-25 21:01 42.57749 -2.81256 34195 ft 515 kts 104°
2026-04-25 21:02 42.56224 -2.71763 34191 ft 514 kts 104°
2026-04-25 21:02 42.54703 -2.62353 34191 ft 514 kts 103°
2026-04-25 21:03 42.53167 -2.52905 34193 ft 514 kts 103°
2026-04-25 21:03 42.51629 -2.43485 34192 ft 513 kts 103°
2026-04-25 21:04 42.50082 -2.34077 34192 ft 514 kts 104°
2026-04-25 21:04 42.48479 -2.24679 34188 ft 513 kts 104°
2026-04-25 21:05 42.46885 -2.15305 34186 ft 512 kts 104°
2026-04-25 21:05 42.45307 -2.05918 34185 ft 512 kts 103°
2026-04-25 21:06 42.43729 -1.96518 34183 ft 513 kts 103°
2026-04-25 21:06 42.42226 -1.87138 34176 ft 513 kts 101°
2026-04-25 21:07 42.41074 -1.77646 34168 ft 513 kts 99°
2026-04-25 21:07 42.39954 -1.68137 34157 ft 511 kts 99°
2026-04-25 21:08 42.38801 -1.58726 34151 ft 511 kts 99°
2026-04-25 21:08 42.37615 -1.49257 34146 ft 513 kts 99°
2026-04-25 21:09 42.35818 -1.35068 34146 ft 511 kts 99°
2026-04-25 21:09 42.34570 -1.25640 34137 ft 511 kts 101°
2026-04-25 21:10 42.33315 -1.16196 34140 ft 510 kts 100°
2026-04-25 21:10 42.32087 -1.06794 34137 ft 510 kts 100°
2026-04-25 21:11 42.30866 -0.97420 34134 ft 509 kts 100°
2026-04-25 21:11 42.29633 -0.88009 34133 ft 509 kts 100°
2026-04-25 21:12 42.28400 -0.78670 34134 ft 510 kts 100°
2026-04-25 21:12 42.27562 -0.72350 34138 ft 511 kts 100°
2026-04-25 21:13 42.25894 -0.59864 34134 ft 509 kts 100°
2026-04-25 21:13 42.24628 -0.50459 34138 ft 509 kts 100°
2026-04-25 21:14 42.23352 -0.41044 34146 ft 509 kts 100°
2026-04-25 21:14 42.22070 -0.31698 34151 ft 509 kts 101°
2026-04-25 21:15 42.20857 -0.22342 34151 ft 508 kts 96°
2026-04-25 21:15 42.20403 -0.12856 34161 ft 508 kts 92°
2026-04-25 21:16 42.20095 -0.03344 34168 ft 507 kts 92°
2026-04-25 21:16 42.19736 0.06136 34172 ft 508 kts 93°
2026-04-25 21:17 42.19339 0.15626 34157 ft 506 kts 93°
2026-04-25 21:17 42.18929 0.25057 34146 ft 508 kts 93°
2026-04-25 21:18 42.18510 0.34503 34141 ft 505 kts 93°
2026-04-25 21:18 42.18085 0.43939 34145 ft 505 kts 93°
2026-04-25 21:19 42.17654 0.53355 34143 ft 503 kts 93°
2026-04-25 21:19 42.17217 0.62704 34144 ft 503 kts 93°
2026-04-25 21:20 42.16910 0.68971 34140 ft 503 kts 94°
2026-04-25 21:20 42.16244 0.81412 34141 ft 493 kts 94°
2026-04-25 21:21 42.15780 0.90546 34146 ft 494 kts 93°
2026-04-25 21:21 42.15312 0.99866 34145 ft 504 kts 93°
2026-04-25 21:22 42.14836 1.09257 34151 ft 502 kts 93°
2026-04-25 21:22 42.14357 1.18545 34151 ft 499 kts 93°
2026-04-25 21:23 42.13870 1.27855 34158 ft 502 kts 93°
2026-04-25 21:23 42.13324 1.37272 34156 ft 503 kts 94°
2026-04-25 21:24 42.12666 1.46560 34150 ft 502 kts 95°
2026-04-25 21:24 42.11991 1.55907 34153 ft 502 kts 94°
2026-04-25 21:25 42.11657 1.60553 34144 ft 489 kts 94°
2026-04-25 21:25 42.11331 1.65089 34147 ft 491 kts 95°
2026-04-25 21:25 42.10623 1.74311 34142 ft 502 kts 96°
2026-04-25 21:26 42.09901 1.83667 34138 ft 504 kts 95°
2026-04-25 21:26 42.09203 1.92985 34137 ft 500 kts 95°
2026-04-25 21:27 42.08506 2.02318 34140 ft 503 kts 95°
2026-04-25 21:27 42.07803 2.11652 34143 ft 505 kts 95°
2026-04-25 21:28 42.07093 2.20965 34126 ft 499 kts 95°
2026-04-25 21:28 42.06374 2.30292 34133 ft 501 kts 95°
2026-04-25 21:29 42.05654 2.39548 34118 ft 498 kts 95°
2026-04-25 21:29 42.04927 2.48779 34116 ft 496 kts 95°
2026-04-25 21:30 42.04195 2.57982 34105 ft 497 kts 95°
2026-04-25 21:30 42.03581 2.65642 34104 ft 497 kts 95°
2026-04-25 21:31 42.02652 2.76399 34091 ft 495 kts 96°
2026-04-25 21:31 42.01872 2.85533 34089 ft 494 kts 95°
2026-04-25 21:32 42.01107 2.94680 34085 ft 493 kts 95°
2026-04-25 21:32 42.00340 3.03854 34081 ft 493 kts 95°
2026-04-25 21:33 41.99572 3.12959 34080 ft 493 kts 95°
2026-04-25 21:33 41.98796 3.22069 34084 ft 493 kts 95°
2026-04-25 21:34 41.98012 3.31183 34079 ft 494 kts 95°
2026-04-25 21:34 41.97219 3.40314 34082 ft 494 kts 95°
2026-04-25 21:35 41.96415 3.49485 34082 ft 495 kts 95°
2026-04-25 21:35 41.95604 3.58648 34085 ft 495 kts 95°
2026-04-25 21:36 41.94783 3.67786 34078 ft 495 kts 96°
2026-04-25 21:36 41.93907 3.76901 34086 ft 495 kts 96°
2026-04-25 21:37 41.93328 3.83029 34077 ft 495 kts 96°
2026-04-25 21:37 41.93134 3.95167 34087 ft 490 kts 75°
2026-04-25 21:38 41.95465 4.03646 34088 ft 488 kts 63°
2026-04-25 21:38 41.98502 4.11772 34075 ft 486 kts 58°
2026-04-25 21:39 42.01968 4.19518 34081 ft 485 kts 56°
2026-04-25 21:39 42.05500 4.27238 34076 ft 486 kts 56°
2026-04-25 21:40 42.09018 4.34991 34075 ft 486 kts 57°
2026-04-25 21:40 42.12529 4.42782 34074 ft 487 kts 56°
2026-04-25 21:41 42.16019 4.50557 34072 ft 487 kts 56°
2026-04-25 21:41 42.19485 4.58300 34076 ft 487 kts 56°
2026-04-25 21:42 42.22988 4.66145 34074 ft 488 kts 57°
2026-04-25 21:42 42.26437 4.74018 34069 ft 488 kts 57°
2026-04-25 21:43 42.29884 4.81866 34075 ft 488 kts 57°
2026-04-25 21:43 42.33355 4.89726 34072 ft 489 kts 57°
2026-04-25 21:44 42.36816 4.97560 34072 ft 489 kts 57°
2026-04-25 21:45 42.42037 5.09415 34072 ft 489 kts 57°
2026-04-25 21:45 42.45504 5.17314 34071 ft 490 kts 57°
2026-04-25 21:46 42.48953 5.25193 34074 ft 490 kts 57°
2026-04-25 21:46 42.52428 5.33151 34074 ft 490 kts 57°
2026-04-25 21:47 42.55882 5.41084 34074 ft 491 kts 57°
2026-04-25 21:47 42.59341 5.49052 34078 ft 490 kts 57°
2026-04-25 21:48 42.62790 5.57017 34071 ft 491 kts 57°
2026-04-25 21:48 42.66215 5.64949 34064 ft 490 kts 57°
2026-04-25 21:49 42.69616 5.72957 34075 ft 492 kts 58°
2026-04-25 21:49 42.73039 5.81028 34076 ft 493 kts 58°
2026-04-25 21:50 42.76461 5.89048 34081 ft 492 kts 58°
2026-04-25 21:50 42.79908 5.97121 34075 ft 494 kts 58°
2026-04-25 21:51 42.83342 6.05182 34080 ft 493 kts 58°
2026-04-25 21:51 42.86762 6.13231 34078 ft 492 kts 58°
2026-04-25 21:52 42.90171 6.21275 34072 ft 493 kts 58°
2026-04-25 21:52 42.93608 6.29411 34077 ft 494 kts 58°
2026-04-25 21:53 42.97025 6.37521 34079 ft 494 kts 58°
2026-04-25 21:53 43.00418 6.45596 34080 ft 494 kts 58°
2026-04-25 21:54 43.03830 6.53740 34074 ft 495 kts 58°
2026-04-25 21:54 43.07251 6.61926 34079 ft 496 kts 58°
2026-04-25 21:55 43.10636 6.70110 34081 ft 496 kts 59°
2026-04-25 21:55 43.13985 6.78314 34079 ft 494 kts 59°
2026-04-25 21:56 43.17336 6.86459 34081 ft 495 kts 59°
2026-04-25 21:56 43.20737 6.94699 34079 ft 496 kts 59°
2026-04-25 21:57 43.24125 7.02923 34078 ft 496 kts 59°
2026-04-25 21:57 43.27502 7.11141 34079 ft 497 kts 59°
2026-04-25 21:58 43.30880 7.19389 34081 ft 496 kts 59°
2026-04-25 21:58 43.34247 7.27634 34079 ft 496 kts 59°
2026-04-25 21:59 43.37594 7.35851 34078 ft 495 kts 59°
2026-04-25 21:59 43.40930 7.44063 34079 ft 495 kts 59°
2026-04-25 22:00 43.45960 7.56494 34081 ft 496 kts 59°
2026-04-25 22:00 43.49974 7.64110 34082 ft 493 kts 46°
2026-04-25 22:01 43.54680 7.70939 34080 ft 493 kts 44°
2026-04-25 22:01 43.58642 7.76528 34079 ft 492 kts 44°
2026-04-25 22:02 43.64205 7.84398 34078 ft 492 kts 44°
2026-04-25 22:02 43.68972 7.91182 34078 ft 492 kts 44°
2026-04-25 22:03 43.73687 7.97914 34075 ft 493 kts 44°
2026-04-25 22:03 43.78450 8.04734 34079 ft 493 kts 44°
2026-04-25 22:04 43.83192 8.11540 34079 ft 493 kts 44°
2026-04-25 22:04 43.87950 8.18388 34079 ft 493 kts 44°
2026-04-25 22:05 43.92685 8.25219 34079 ft 493 kts 44°
2026-04-25 22:05 43.97437 8.32093 34080 ft 493 kts 44°
2026-04-25 22:06 44.02151 8.38924 34083 ft 494 kts 44°
2026-04-25 22:06 44.06895 8.45816 34085 ft 494 kts 44°
2026-04-25 22:07 44.10841 8.51563 34076 ft 493 kts 44°
2026-04-25 22:07 44.16360 8.59623 34081 ft 493 kts 44°
2026-04-25 22:08 44.21084 8.66543 34071 ft 493 kts 45°
2026-04-25 22:08 44.25737 8.73478 34067 ft 493 kts 45°
2026-04-25 22:09 44.30421 8.80434 34073 ft 493 kts 45°
2026-04-25 22:09 44.35106 8.87359 34074 ft 493 kts 44°
2026-04-25 22:10 44.39803 8.94302 34068 ft 493 kts 44°
2026-04-25 22:10 44.44532 9.01309 34077 ft 494 kts 44°
2026-04-25 22:11 44.49196 9.08239 34078 ft 493 kts 44°
2026-04-25 22:11 44.53870 9.15202 34082 ft 492 kts 44°
2026-04-25 22:12 44.58553 9.22194 34078 ft 492 kts 44°
2026-04-25 22:12 44.61678 9.26870 34079 ft 491 kts 44°
2026-04-25 22:13 44.67896 9.36198 34077 ft 492 kts 44°
2026-04-25 22:13 44.72550 9.43198 34066 ft 492 kts 44°
2026-04-25 22:14 44.77217 9.50239 34060 ft 492 kts 44°
2026-04-25 22:14 44.81858 9.57257 34054 ft 491 kts 44°
2026-04-25 22:15 44.86517 9.64320 34036 ft 491 kts 44°
2026-04-25 22:16 44.93439 9.74981 34022 ft 492 kts 45°
2026-04-25 22:16 44.98076 9.82109 34018 ft 491 kts 45°
2026-04-25 22:17 45.02712 9.89213 34019 ft 491 kts 44°
2026-04-25 22:17 45.07310 9.96268 34025 ft 489 kts 44°
2026-04-25 22:18 45.11926 10.03362 34024 ft 490 kts 44°
2026-04-25 22:18 45.16507 10.10544 34020 ft 492 kts 47°
2026-04-25 22:19 45.20637 10.18263 34021 ft 494 kts 51°
2026-04-25 22:19 45.24607 10.26166 34019 ft 494 kts 51°
2026-04-25 22:20 45.28591 10.34109 34021 ft 493 kts 51°
2026-04-25 22:20 45.32546 10.41973 34028 ft 493 kts 51°
2026-04-25 22:21 45.36537 10.49913 34022 ft 493 kts 51°
2026-04-25 22:21 45.40492 10.57803 34026 ft 493 kts 51°
2026-04-25 22:22 45.44476 10.65771 34023 ft 493 kts 52°
2026-04-25 22:22 45.48385 10.73735 34027 ft 493 kts 52°
2026-04-25 22:23 45.52310 10.81721 34033 ft 493 kts 52°
2026-04-25 22:23 45.56255 10.89703 34032 ft 493 kts 52°
2026-04-25 22:24 45.60180 10.97645 34041 ft 492 kts 52°
2026-04-25 22:24 45.64109 11.05615 34047 ft 493 kts 51°
2026-04-25 22:25 45.68035 11.13600 34049 ft 493 kts 52°
2026-04-25 22:25 45.71978 11.21642 34052 ft 493 kts 51°
2026-04-25 22:26 45.75899 11.29664 34054 ft 493 kts 51°
2026-04-25 22:26 45.79811 11.37690 34054 ft 493 kts 51°
2026-04-25 22:27 45.83719 11.45730 34056 ft 493 kts 51°
2026-04-25 22:27 45.87614 11.53765 34071 ft 494 kts 52°
2026-04-25 22:28 45.91523 11.61853 34075 ft 494 kts 51°
2026-04-25 22:28 45.95393 11.69938 34070 ft 494 kts 53°
2026-04-25 22:29 45.99265 11.78129 34057 ft 494 kts 52°
2026-04-25 22:29 46.03127 11.86244 34067 ft 493 kts 52°
2026-04-25 22:30 46.08933 11.98412 34084 ft 495 kts 52°
2026-04-25 22:30 46.12191 12.05259 34094 ft 496 kts 52°
2026-04-25 22:31 46.16709 12.14786 34108 ft 493 kts 52°
2026-04-25 22:31 46.20551 12.22910 34113 ft 493 kts 52°
2026-04-25 22:32 46.24403 12.31078 34118 ft 494 kts 52°
2026-04-25 22:32 46.28247 12.39253 34119 ft 494 kts 52°
2026-04-25 22:33 46.32100 12.47470 34124 ft 494 kts 52°
2026-04-25 22:33 46.35945 12.55696 34123 ft 493 kts 52°
2026-04-25 22:34 46.39774 12.63910 34131 ft 493 kts 52°
2026-04-25 22:34 46.43554 12.72143 34125 ft 493 kts 53°
2026-04-25 22:35 46.47333 12.80416 34136 ft 493 kts 53°
2026-04-25 22:35 46.51117 12.88645 34137 ft 492 kts 53°
2026-04-25 22:36 46.54902 12.96866 34130 ft 493 kts 53°
2026-04-25 22:36 46.58710 13.05156 34117 ft 492 kts 53°
2026-04-25 22:37 46.62474 13.13374 34120 ft 492 kts 53°
2026-04-25 22:37 46.66246 13.21637 34122 ft 492 kts 53°
2026-04-25 22:38 46.69821 13.30108 34140 ft 494 kts 58°
2026-04-25 22:38 46.72986 13.38988 34130 ft 496 kts 59°
2026-04-25 22:39 46.75820 13.48146 34152 ft 498 kts 65°
2026-04-25 22:39 46.78244 13.57576 34150 ft 497 kts 66°
2026-04-25 22:40 46.80606 13.67048 34151 ft 498 kts 67°
2026-04-25 22:40 46.82921 13.76531 34149 ft 500 kts 67°
2026-04-25 22:41 46.85262 13.86030 34140 ft 492 kts 67°
2026-04-25 22:41 46.87555 13.95254 34149 ft 484 kts 66°
2026-04-25 22:42 46.89864 14.04521 34144 ft 490 kts 66°
2026-04-25 22:42 46.92189 14.13903 34137 ft 489 kts 66°
2026-04-25 22:43 46.94475 14.23170 34126 ft 487 kts 66°
2026-04-25 22:43 46.96776 14.32534 33880 ft 492 kts 67°
2026-04-25 22:44 46.97922 14.37209 33428 ft 493 kts 67°
2026-04-25 22:44 46.99067 14.41903 32984 ft 485 kts 67°
2026-04-25 22:44 47.00181 14.46482 32530 ft 477 kts 67°
2026-04-25 22:44 47.01292 14.51055 32089 ft 474 kts 67°
2026-04-25 22:45 47.02378 14.55522 31647 ft 471 kts 67°
2026-04-25 22:45 47.03467 14.60014 31201 ft 468 kts 67°
2026-04-25 22:45 47.04555 14.64508 30756 ft 466 kts 67°
2026-04-25 22:45 47.05616 14.68957 30311 ft 464 kts 68°
2026-04-25 22:46 47.06659 14.73412 29868 ft 461 kts 68°
2026-04-25 22:46 47.07697 14.77838 29421 ft 458 kts 68°
2026-04-25 22:46 47.08736 14.82240 28977 ft 456 kts 68°
2026-04-25 22:46 47.09770 14.86597 28531 ft 454 kts 68°
2026-04-25 22:47 47.10806 14.90950 28084 ft 452 kts 68°
2026-04-25 22:47 47.11828 14.95243 27614 ft 449 kts 68°
2026-04-25 22:47 47.12864 14.99597 27122 ft 449 kts 68°
2026-04-25 22:47 47.13899 15.03946 26635 ft 456 kts 68°
2026-04-25 22:48 47.14935 15.08310 26150 ft 458 kts 68°
2026-04-25 22:48 47.15979 15.12726 25662 ft 454 kts 68°
2026-04-25 22:48 47.16996 15.17039 25178 ft 449 kts 68°
2026-04-25 22:48 47.18021 15.21389 24682 ft 447 kts 68°
2026-04-25 22:49 47.19025 15.25659 24193 ft 444 kts 68°
2026-04-25 22:49 47.20021 15.29902 23708 ft 442 kts 68°
2026-04-25 22:49 47.21018 15.34158 23216 ft 440 kts 68°
2026-04-25 22:49 47.22012 15.38415 22724 ft 436 kts 68°
2026-04-25 22:50 47.22987 15.42599 22239 ft 433 kts 68°
2026-04-25 22:50 47.23944 15.46712 21758 ft 431 kts 68°
2026-04-25 22:50 47.24920 15.50916 21297 ft 429 kts 68°
2026-04-25 22:50 47.25867 15.55004 21042 ft 424 kts 68°
2026-04-25 22:51 47.26819 15.59119 20796 ft 426 kts 68°
2026-04-25 22:51 47.27760 15.63194 20548 ft 426 kts 68°
2026-04-25 22:51 47.28705 15.67320 20298 ft 425 kts 69°
2026-04-25 22:51 47.29625 15.71437 20052 ft 424 kts 69°
2026-04-25 22:52 47.30538 15.75521 19803 ft 415 kts 69°
2026-04-25 22:52 47.31443 15.79536 19553 ft 404 kts 69°
2026-04-25 22:52 47.32322 15.83405 19306 ft 394 kts 69°
2026-04-25 22:52 47.32894 15.85913 19140 ft 388 kts 69°
2026-04-25 22:53 47.34020 15.90845 18805 ft 376 kts 69°
2026-04-25 22:53 47.34848 15.94478 18561 ft 372 kts 69°
2026-04-25 22:53 47.35675 15.98053 18316 ft 370 kts 65°
2026-04-25 22:53 47.36901 16.01339 18069 ft 364 kts 49°
2026-04-25 22:54 47.38681 16.03962 17830 ft 356 kts 32°
2026-04-25 22:54 47.40809 16.05682 17593 ft 347 kts 17°
2026-04-25 22:54 47.43055 16.06877 17344 ft 345 kts 18°
2026-04-25 22:54 47.45140 16.08654 17043 ft 353 kts 32°
2026-04-25 22:55 47.47041 16.10979 16540 ft 356 kts 37°
2026-04-25 22:55 47.48847 16.13416 16031 ft 356 kts 38°
2026-04-25 22:55 47.50680 16.15918 15518 ft 356 kts 38°
2026-04-25 22:55 47.52501 16.18383 15017 ft 354 kts 37°
2026-04-25 22:56 47.54306 16.20809 14517 ft 353 kts 37°
2026-04-25 22:56 47.56107 16.23222 14006 ft 352 kts 37°
2026-04-25 22:56 47.57901 16.25633 13476 ft 339 kts 37°
2026-04-25 22:56 47.59589 16.27903 13097 ft 323 kts 36°
2026-04-25 22:57 47.61216 16.30088 12746 ft 310 kts 36°
2026-04-25 22:57 47.62789 16.32201 12373 ft 304 kts 36°
2026-04-25 22:57 47.64361 16.34309 11886 ft 303 kts 36°
2026-04-25 22:57 47.65896 16.36374 11420 ft 300 kts 36°
2026-04-25 22:58 47.67437 16.38449 10944 ft 299 kts 36°
2026-04-25 22:58 47.68959 16.40501 10456 ft 297 kts 36°
2026-04-25 22:58 47.70478 16.42550 9980 ft 294 kts 36°
2026-04-25 22:58 47.71970 16.44569 9536 ft 285 kts 36°
2026-04-25 22:59 47.73405 16.46512 9111 ft 277 kts 36°
2026-04-25 22:59 47.74803 16.48403 8693 ft 270 kts 35°
2026-04-25 22:59 47.76174 16.50260 8263 ft 263 kts 35°
2026-04-25 22:59 47.77496 16.52050 7838 ft 258 kts 36°
2026-04-25 23:00 47.78813 16.53836 7417 ft 253 kts 35°
2026-04-25 23:00 47.80098 16.55578 6993 ft 249 kts 35°
2026-04-25 23:00 47.81365 16.57296 6569 ft 247 kts 35°
2026-04-25 23:00 47.82617 16.58995 6162 ft 244 kts 35°
2026-04-25 23:01 47.83868 16.60694 5781 ft 242 kts 36°
2026-04-25 23:01 47.85094 16.62364 5413 ft 240 kts 36°
2026-04-25 23:01 47.86202 16.64206 5119 ft 244 kts 57°
2026-04-25 23:01 47.86827 16.66610 5020 ft 250 kts 66°
2026-04-25 23:02 47.87368 16.69060 4997 ft 249 kts 66°
2026-04-25 23:02 47.87918 16.71506 4999 ft 250 kts 66°
2026-04-25 23:02 47.88478 16.73950 5003 ft 251 kts 66°
2026-04-25 23:02 47.89038 16.76382 4991 ft 249 kts 65°
2026-04-25 23:03 47.89600 16.78821 4990 ft 249 kts 66°
2026-04-25 23:03 47.90163 16.81268 4994 ft 250 kts 65°
2026-04-25 23:03 47.90611 16.83777 4985 ft 255 kts 83°
2026-04-25 23:03 47.90255 16.86364 4991 ft 261 kts 112°
2026-04-25 23:04 47.89438 16.88817 4995 ft 263 kts 115°
2026-04-25 23:04 47.88882 16.90412 4988 ft 262 kts 115°
2026-04-25 23:04 47.87777 16.93651 4986 ft 263 kts 115°
2026-04-25 23:04 47.86969 16.96051 4986 ft 257 kts 114°
2026-04-25 23:05 47.86394 16.98534 4988 ft 257 kts 88°
2026-04-25 23:05 47.86742 17.01059 4981 ft 245 kts 53°
2026-04-25 23:05 47.87886 17.02814 4910 ft 235 kts 28°
2026-04-25 23:05 47.89270 17.04123 4636 ft 235 kts 25°
2026-04-25 23:06 47.90646 17.05356 4449 ft 230 kts 25°
2026-04-25 23:06 47.92015 17.06572 4204 ft 229 kts 25°
2026-04-25 23:06 47.93384 17.07784 3966 ft 227 kts 25°
2026-04-25 23:06 47.94765 17.08751 3718 ft 218 kts
2026-04-25 23:07 47.96222 17.08411 3472 ft 214 kts 328°
2026-04-25 23:07 47.97188 17.06794 3220 ft 216 kts 293°
2026-04-25 23:07 47.97308 17.04537 3048 ft 222 kts 268°
2026-04-25 23:07 47.97155 17.02240 2996 ft 221 kts 270°
2026-04-25 23:08 47.97263 17.00015 2987 ft 216 kts 288°
2026-04-25 23:08 47.97694 16.97880 2986 ft 214 kts 292°
2026-04-25 23:08 47.98248 16.95840 2989 ft 212 kts 297°
2026-04-25 23:08 47.98894 16.93856 2993 ft 212 kts 300°
2026-04-25 23:09 47.99573 16.91901 2992 ft 211 kts 300°
2026-04-25 23:09 48.00248 16.89962 2982 ft 211 kts 300°
2026-04-25 23:09 48.00893 16.88058 2990 ft 198 kts 299°
2026-04-25 23:09 48.01475 16.86303 2981 ft 180 kts 299°
2026-04-25 23:10 48.01996 16.84715 2978 ft 162 kts 300°
2026-04-25 23:10 48.02470 16.83271 2995 ft 147 kts 300°
2026-04-25 23:10 48.02923 16.81903 2995 ft 149 kts 300°
2026-04-25 23:10 48.03381 16.80520 2993 ft 148 kts 300°
2026-04-25 23:11 48.03837 16.79137 2995 ft 149 kts 300°
2026-04-25 23:11 48.04295 16.77740 2991 ft 149 kts 300°
2026-04-25 23:11 48.04746 16.76364 2985 ft 148 kts 300°
2026-04-25 23:11 48.05201 16.74979 2975 ft 147 kts 300°
2026-04-25 23:12 48.05655 16.73599 2831 ft 147 kts 299°
2026-04-25 23:12 48.06100 16.72245 2684 ft 146 kts 299°
2026-04-25 23:12 48.06548 16.70878 2517 ft 145 kts 298°
2026-04-25 23:12 48.06988 16.69536 2327 ft 146 kts 298°
2026-04-25 23:13 48.07423 16.68205 2119 ft 139 kts 297°
2026-04-25 23:13 48.07830 16.66962 1986 ft 131 kts 297°
2026-04-25 23:13 48.08228 16.65747 1773 ft 126 kts 297°
2026-04-25 23:13 48.08608 16.64586 1613 ft 125 kts 296°
2026-04-25 23:14 48.08989 16.63424 1466 ft 126 kts 296°
2026-04-25 23:14 48.09378 16.62242 1289 ft 129 kts 295°
2026-04-25 23:14 48.09779 16.61019 1148 ft 132 kts 296°
2026-04-25 23:14 48.10173 16.59812 947 ft 126 kts 294°
2026-04-25 23:15 48.10548 16.58648 789 ft 122 kts 296°
2026-04-25 23:15 48.10929 16.57484 643 ft 128 kts 295°
2026-04-25 23:15 48.11301 16.56341 595 ft 112 kts 295°
2026-04-25 23:15 48.11574 16.55504 585 ft 67 kts 295°
2026-04-25 23:16 48.11729 16.55027 584 ft 44 kts 296°
2026-04-25 23:16 48.11886 16.54670 581 ft 31 kts 323°
2026-04-25 23:16 48.12001 16.54553 579 ft 9 kts 332°
2026-04-25 23:16 48.12041 16.54546 578 ft 0 kts 15°
2026-04-25 23:19 48.12051 16.54550 578 ft 0 kts 15°
2026-04-25 23:20 48.12073 16.54573 578 ft 5 kts 60°
2026-04-25 23:20 48.12069 16.54630 579 ft 6 kts 113°
2026-04-25 23:20 48.12036 16.54739 580 ft 14 kts 117°
2026-04-25 23:20 48.11997 16.54856 581 ft 11 kts 116°
2026-04-25 23:21 48.11958 16.54974 582 ft 15 kts 116°
2026-04-25 23:21 48.11902 16.55148 584 ft 20 kts 117°
2026-04-25 23:21 48.11835 16.55357 584 ft 22 kts 116°
2026-04-25 23:21 48.11766 16.55567 584 ft 22 kts 116°
2026-04-25 23:22 48.11695 16.55775 584 ft 21 kts 117°
2026-04-25 23:22 48.11644 16.55940 586 ft 15 kts 115°
2026-04-25 23:22 48.11603 16.56069 589 ft 13 kts 117°
2026-04-25 23:23 48.11685 16.56262 593 ft 12 kts 28°
2026-04-25 23:23 48.11749 16.56321 594 ft 8 kts 59°
2026-04-25 23:23 48.11745 16.56402 597 ft 8 kts 111°
2026-04-25 23:23 48.11715 16.56502 599 ft 11 kts 116°
2026-04-25 23:24 48.11686 16.56594 602 ft 8 kts 116°
2026-04-25 23:24 48.11655 16.56686 604 ft 13 kts 116°
2026-04-25 23:24 48.11609 16.56827 607 ft 12 kts 116°
2026-04-25 23:24 48.11632 16.56897 607 ft 9 kts 29°
2026-04-25 23:25 48.11671 16.56926 607 ft 0 kts 26°